Estación de Rauco

Ultimos registro cada 15 minutos 25
Estación Fecha / Hora Temperatura Humedad Lluvia Velocidad Dirección Radiación Presion
25 Rauco 09-05-2026 06:00 7,9 86 0 0 251 0 1019,7
24 Rauco 09-05-2026 05:45 8,1 86 0 0,4 249 0 1019,6
23 Rauco 09-05-2026 05:30 8,3 87 0 0 246 0 1019,4
22 Rauco 09-05-2026 05:15 8,4 87 0 0,4 203 0 1019,2
21 Rauco 09-05-2026 05:00 8,5 86 0 0 192 0 1019,1
20 Rauco 09-05-2026 04:45 8,6 86 0 0 278 0 1019,2
19 Rauco 09-05-2026 04:30 8,8 86 0 0,4 224 0 1019,2
18 Rauco 09-05-2026 04:15 8,9 86 0 0 250 0 1019,3
17 Rauco 09-05-2026 04:00 8,9 87 0 0,4 250 0 1019,4
16 Rauco 09-05-2026 03:45 8,9 88 0 0 249 0 1019,5
15 Rauco 09-05-2026 03:30 8,9 88 0 0,4 231 0 1019,6
14 Rauco 09-05-2026 03:15 8,9 89 0 0 255 0 1019,7
13 Rauco 09-05-2026 03:00 9,3 89 0 0 142 0 1019,7
12 Rauco 09-05-2026 02:45 9,5 88 0 1,3 244 0 1019,9
11 Rauco 09-05-2026 02:30 9,6 88 0 0,4 249 0 1019,8
10 Rauco 09-05-2026 02:15 9,7 88 0 1,3 253 0 1019,9
9 Rauco 09-05-2026 02:00 9,9 87 0 0,4 353 0 1020
8 Rauco 09-05-2026 01:45 10,2 87 0 0,4 246 0 1020,1
7 Rauco 09-05-2026 01:30 10,3 87 0 0,9 236 0 1020,1
6 Rauco 09-05-2026 01:15 10,3 87 0 0 277 0 1020,1
5 Rauco 09-05-2026 01:00 10,3 88 0 0 260 0 1020
4 Rauco 09-05-2026 00:45 10,3 88 0 0 259 0 1020
3 Rauco 09-05-2026 00:30 10,2 89 0 0 259 0 1020
2 Rauco 09-05-2026 00:15 10,2 88 0 0 259 0 1020,1
1 Rauco 09-05-2026 00:00 10,1 88 0 0 259 0 1020,1